Regional Weather Roundup
Issued by NWS

Home | Current Version | Previous Version | Graphics & Text | Print | Product List | Glossary On
Versions: 1 2 3 4 5 6 7 8 9 10 11 12 13 14 15 16 17 18 19 20 21 22 23 24 25 26 27 28 29 30 31 32 33 34 35 36 37 38 39 40 41 42 43 44 45 46 47 48 49 50
000
ASUS45 KPSR 250600
RWRAZ

ARIZONA HOURLY REGIONAL WEATHER ROUNDUP
NATIONAL WEATHER SERVICE PHOENIX AZ
1100 PM MST SUN MAY 24 2015

NOTE: FAIR INDICATES FEW OR NO CLOUDS BELOW 12,000 FEET WITH NO
SIGNIFICANT WEATHER AND/OR OBSTRUCTIONS TO VISIBILITY.

AZZ001>003-036-250700-
NORTHWEST ARIZONA

CITY           SKY/WX    TMP DP  RH WIND       PRES   REMARKS
KINGMAN        CLOUDY    61  49  64 CALM      29.94R
6HR MIN TEMP:  61; 6HR MAX TEMP:  76; 6HR PCP: TRACE;

$$

AZZ004>008-015-016-018-250700-
NORTH CENTRAL ARIZONA

CITY           SKY/WX    TMP DP  RH WIND       PRES   REMARKS
GRAND CANYON   MOCLDY    43  42  97 CALM      30.06F
6HR MIN TEMP:  43; 6HR MAX TEMP:  55; 6HR PCP:  0.09;

PRESCOTT       PTCLDY    56  34  43 S7        30.02R
6HR MIN TEMP:  56; 6HR MAX TEMP:  66;

FLAGSTAFF      NOT AVBL
PAYSON         PTCLDY    52  39  62 CALM      30.04S
PAGE           PTCLDY    60  47  61 CALM      29.93R
6HR MIN TEMP:  60; 6HR MAX TEMP:  66;

$$

AZZ009>014-017-250700-
NORTHEAST ARIZONA

CITY           SKY/WX    TMP DP  RH WIND       PRES   REMARKS
WINSLOW        NOT AVBL
SAINT JOHNS    PTCLDY    47  37  68 S3        30.03S
6HR MIN TEMP:  45; 6HR MAX TEMP:  60; 6HR PCP: TRACE;

WINDOW ROCK    CLOUDY    47  38  71 CALM      30.05F
6HR MIN TEMP:  47; 6HR MAX TEMP:  60;

$$

AZZ023-250700-
GREATER PHOENIX AREA

CITY           SKY/WX    TMP DP  RH WIND       PRES   REMARKS
PHOENIX        CLEAR     76  40  27 SW3       29.83S
6HR MIN TEMP:  76; 6HR MAX TEMP:  84;

DEER VALLEY    CLEAR     71  37  28 CALM      29.85S
6HR MIN TEMP:  71; 6HR MAX TEMP:  82;

SCOTTSDALE     CLEAR     74  39  28 CALM      29.87S
6HR MIN TEMP:  74; 6HR MAX TEMP:  82;

$$

AZZ027-028-250700-
SOUTHWEST MARICOPA COUNTY AND PINAL COUNTY

CITY           SKY/WX    TMP DP  RH WIND       PRES   REMARKS
CASA GRANDE    CLEAR     68  39  34 CALM      29.86S
6HR MIN TEMP:  68; 6HR MAX TEMP:  82;

$$

AZZ503-504-507>509-250700-
SOUTHEAST ARIZONA

CITY           SKY/WX    TMP DP  RH WIND       PRES   REMARKS
TUCSON         CLEAR     68  33  27 SW6       29.94R
6HR MIN TEMP:  68; 6HR MAX TEMP:  82;

NOGALES        CLEAR     56  32  40 E6        29.99S
6HR MIN TEMP:  56; 6HR MAX TEMP:  74;

SAFFORD        CLEAR     64  34  32 NW3       29.93S
6HR MIN TEMP:  63; 6HR MAX TEMP:  81;

$$

AZZ020-021-025-026-031-250700-
SOUTHWEST ARIZONA

CITY           SKY/WX    TMP DP  RH WIND       PRES   REMARKS
YUMA           CLEAR     76  43  30 S7        29.83R
6HR MIN TEMP:  75; 6HR MAX TEMP:  86;

$$

CAZ031-033-041-043-047-048-061-250700-
SOUTHERN CALIFORNIA

CITY           SKY/WX    TMP DP  RH WIND       PRES   REMARKS
DOWNTOWN L.A.  CLEAR     60  52  74 CALM      29.97S
6HR MIN TEMP:  60; 6HR MAX TEMP:  70;

L.A. AIRPORT   PTCLDY    59  54  83 W8        29.98S
6HR MIN TEMP:  59; 6HR MAX TEMP:  65;

SAN DIEGO      MOCLDY    63  54  72 NW7       30.00S
6HR MIN TEMP:  63; 6HR MAX TEMP:  69;

BURBANK        CLEAR     60  50  69 S3        29.96S
6HR MIN TEMP:  60; 6HR MAX TEMP:  70;

ONTARIO        PTCLDY    58  51  78 W6        29.97S
6HR MIN TEMP:  58; 6HR MAX TEMP:  68;

RIVERSIDE      CLEAR     59  53  80 W7        29.97S
6HR MIN TEMP:  59; 6HR MAX TEMP:  70;

PALM SPRINGS   CLEAR     74  49  41 NW10      29.84S
6HR MIN TEMP:  74; 6HR MAX TEMP:  83;

EL CENTRO NAS  CLEAR     73  48  41 SW10      29.82F
6HR MIN TEMP:  72; 6HR MAX TEMP:  88;

IMPERIAL       CLEAR     70  50  49 W5        29.81R
6HR MIN TEMP:  70; 6HR MAX TEMP:  88;

BLYTHE         CLEAR     76  48  37 S9        29.81S
6HR MIN TEMP:  75; 6HR MAX TEMP:  87;

$$

NVZ020-UTZ003-250700-
SOUTHERN NEVADA-UTAH

CITY           SKY/WX    TMP DP  RH WIND       PRES   REMARKS
LAS VEGAS      NOT AVBL
SALT LAKE CITY MOCLDY    55  48  77 SE5       29.93S
6HR MIN TEMP:  54; 6HR MAX TEMP:  65; 6HR PCP:  0.11;

$$

NMZ009-TXZ055-250700-
NEW MEXICO-WEST TEXAS

CITY           SKY/WX    TMP DP  RH WIND       PRES   REMARKS
ALBUQUERQUE    CLOUDY    55  44  66 E5        30.02S
6HR MIN TEMP:  51; 6HR MAX TEMP:  67; 6HR PCP:  0.10;

EL PASO        CLOUDY    72  26  18 W17G29    29.90R
6HR MIN TEMP:  72; 6HR MAX TEMP:  81;

$$


........................KEY........................
SKY/WX - SKY CONDITION/WEATHER
TMP    - TEMPERATURE IN FAHRENHEIT
DP     - DEW POINT IN FAHRENHEIT
RH     - RELATIVE HUMIDITY IN PERCENT
WIND   - DIRECTION AND SPEED IN MILES PER HOUR (MPH)
VRB    - VARIABLE WIND DIRECTION
PRES   - MEAN SEA LEVEL PRESSURE IN INCHES OF MERCURY
         F - FALLING PRESSURE   R - RISING PRESSURE
         S - STEADY PRESSURE
VSB    - VISIBILITY IN MILES
HX     - HEAT INDEX IN FAHRENHEIT
WCI    - WIND CHILL INDEX IN FAHRENHEIT
TC     - TEMPERATURE IN CELSIUS WHICH IS ALSO KNOWN AS
         TEMPERATURE IN CENTIGRADE
AFB    - AIR FORCE BASE
         LUKE AFB IS LUKE AIR FORCE BASE
         DAVIS-MONTHAN IS DAVIS-MONTHAN AIR FORCE BASE
NAS    - NAVAL AIR STATION
         EL CENTRO NAS IS EL CENTRO NAVAL AIR STATION
N/A    - NOT AVAILABLE




USA.gov is the U.S. government's official web portal to all federal, state and local government web resources and services.